RH
86 84 78 71 52 25 17 20 17 12 15 24 18 18 22 16 8 24 48 54 55 48 11 9 8 8 9 27 28 40 32 31 29 28 25 24 22 18 18 19 17 22 22 28 34
51 47 47 41 22 17 15 14 12 9 15 16 13 13 29 17 7 14 38 49 50 27 10 14 16 13 22 24 31 30 29 28 26 24 23 24 24 21 21 20 21 22 34 39 36
30 24 23 21 19 15 14 11 9 8 13 14 11 12 16 22 10 14 33 38 25 14 12 13 13 16 21 26 30 24 22 22 22 24 27 26 25 22 24 26 23 20 24 42 41
22 17 19 16 14 13 10 8 7 6 9 11 8 9 8 10 10 15 23 14 12 9 10 11 17 18 23 21 26 26 24 22 25 31 29 29 29 28 27 24 21 24 23 39 40
16 14 18 14 13 10 9 8 8 7 6 9 8 7 8 16 17 18 14 14 12 8 18 22 21 18 20 22 22 22 24 25 29 30 34 31 30 30 30 26 26 26 35 37 40
17 16 15 13 11 9 8 12 10 8 9 9 8 8 9 18 17 18 14 14 15 14 19 22 22 22 25 26 22 26 26 27 27 27 33 33 29 31 24 27 26 30 35 36 39
15 14 12 12 10 9 13 12 11 10 10 9 7 7 14 15 16 15 15 17 17 18 23 17 17 18 20 25 26 24 22 23 29 29 33 32 24 31 26 28 28 29 34 37 38
15 13 11 11 9 12 11 10 11 9 10 9 8 7 15 13 16 14 13 14 16 14 18 15 15 29 26 26 22 22 21 21 25 29 33 25 23 22 28 29 30 30 32 33 33
15 14 14 12 10 8 8 8 13 8 9 10 10 9 12 13 15 18 18 20 18 17 15 13 17 29 29 24 28 26 24 24 23 35 32 25 24 24 26 34 37 36 33 30 30
16 15 13 15 16 11 9 9 11 11 10 11 12 20 17 20 20 19 19 19 22 21 18 26 29 24 34 28 34 22 33 31 33 27 38 38 40 31 31 37 37 38 41 38 36
15 16 17 14 15 11 12 16 17 23 18 19 18 16 20 19 17 19 21 21 21 25 22 25 31 28 29 34 20 29 42 52 41 34 35 38 42 36 31 40 34 34 38 40 39
17 16 18 17 15 12 14 32 37 22 26 22 21 19 20 23 26 22 18 21 27 26 26 22 29 27 30 36 36 44 61 55 39 35 38 49 42 38 42 33 32 34 36 37 38
16 15 16 22 14 16 24 36 30 26 30 26 22 19 21 20 30 34 27 26 30 30 32 29 26 31 30 32 36 41 48 50 52 45 52 58 43 24 29 34 33 33 36 37 38
16 17 17 21 18 17 25 27 29 41 45 37 24 22 20 22 27 30 24 25 30 29 30 29 28 32 29 27 36 51 39 46 48 66 49 52 53 21 28 38 36 30 33 37 37
22 18 17 15 16 21 21 21 24 48 53 30 24 18 22 26 30 30 26 24 29 31 34 27 36 35 26 28 38 34 44 45 63 78 67 52 63 36 32 22 22 23 28 34 37
23 20 18 20 19 22 20 22 43 65 50 29 25 29 24 31 34 37 30 31 30 30 36 34 35 38 37 39 40 40 38 53 58 61 61 64 51 44 19 26 19 28 30 32 36
28 22 22 24 27 25 30 40 60 61 30 33 29 28 26 33 32 37 39 58 50 60 64 39 36 38 44 45 40 56 67 75 73 72 58 67 54 54 30 19 25 22 26 30 33
32 25 27 28 29 32 40 50 50 32 29 26 25 30 29 37 34 35 32 41 52 57 70 51 60 37 45 54 52 64 64 71 63 56 50 48 61 45 30 24 27 30 33 33 34
35 29 31 32 37 42 60 67 48 36 25 28 32 33 36 27 38 38 47 52 64 71 58 59 55 51 51 53 56 52 57 49 69 85 57 42 49 42 22 22 24 26 24 28 32
37 32 40 34 37 46 63 50 37 30 25 26 36 30 39 38 42 44 41 64 64 73 75 58 65 41 61 59 58 57 63 59 80 54 67 47 54 40 36 27 19 17 24 28 33
43 59 43 37 34 59 70 52 36 32 30 27 26 41 50 42 37 47 55 52 71 66 64 74 68 60 50 73 68 73 72 73 69 65 64 58 58 65 51 51 47 41 41 49 51
51 50 50 41 63 62 66 33 33 32 32 31 34 57 43 34 40 34 40 44 62 69 66 77 75 76 57 91 79 77 67 70 70 76 81 76 63 66 67 64 67 63 65 60 63
75 76 48 44 79 70 41 33 34 34 32 32 30 30 41 34 51 35 32 48 56 52 74 77 82 82 76 82 84 82 84 82 81 77 87 78 72 68 63 62 69 69 67 74 73
83 78 72 68 70 70 64 40 36 33 31 30 32 32 34 34 37 49 35 45 54 45 51 57 82 69 74 70 77 82 90 84 68 79 82 66 55 47 48 59 59 60 77 78 77
87 76 79 80 74 53 60 66 41 45 34 31 32 38 52 46 36 44 40 38 56 47 68 73 81 69 57 56 63 60 66 85 73 61 63 55 75 56 52 56 58 63 68 70 72
79 82 90 86 50 47 60 66 48 44 46 40 41 37 43 52 52 64 38 37 39 69 84 78 88 86 89 68 80 80 72 74 71 65 64 61 64 50 52 61 71 76 70 66 63
71 72 85 77 65 69 74 56 61 47 46 39 42 48 44 40 37 34 36 36 40 70 86 87 90 82 75 63 68 83 84 76 85 79 71 77 60 78 68 70 63 61 66 73 69
Wind_Speed
8 8 8 8 8 7 10 13 13 14 16 15 12 10 7 5 22 29 26 23 24 30 16 7 8 7 11 6 7 1 5 2 2 1 3 1 3 1 1 2 0 1 2 1 10
8 7 7 7 7 7 9 11 11 13 17 17 12 14 3 2 8 27 23 28 27 25 14 12 6 9 5 6 5 5 4 3 2 2 3 2 2 1 3 2 3 2 1 7 7
8 6 6 7 7 8 9 9 10 13 17 19 12 12 8 2 5 8 30 29 27 21 6 7 5 5 7 4 7 4 3 3 2 1 1 2 3 1 2 4 6 4 6 10 7
7 6 6 6 7 7 8 9 10 12 15 20 16 8 8 2 4 15 26 24 22 28 6 17 7 5 6 6 4 6 2 1 1 2 1 3 4 3 4 5 2 7 6 11 10
10 7 6 6 6 6 7 10 12 11 10 12 22 12 4 8 3 22 20 20 15 25 30 5 8 4 6 4 2 4 2 0 1 5 4 4 4 4 7 10 9 6 6 9 10
11 8 7 6 5 6 8 12 12 9 9 10 9 21 8 9 11 21 16 18 21 19 26 16 4 3 7 4 4 2 2 1 3 4 2 5 5 3 4 3 3 4 7 8 12
10 9 8 7 5 6 8 10 11 9 9 9 9 4 16 6 12 21 14 15 18 15 6 15 5 4 3 4 2 1 4 2 4 5 3 5 1 5 1 2 5 7 10 9 14
10 10 9 7 5 5 7 10 11 6 11 9 9 5 5 5 11 28 17 8 8 16 8 7 7 10 6 3 5 6 4 6 2 7 3 5 6 5 3 4 12 12 10 10 12
11 9 9 8 7 8 8 7 15 3 6 10 5 5 3 6 11 24 16 9 8 5 10 5 7 5 5 4 4 8 2 3 8 5 5 6 9 6 2 8 12 10 10 12 13
15 12 7 8 9 10 6 5 3 9 4 3 9 4 6 6 12 22 14 10 4 5 3 9 6 5 5 7 1 5 5 4 7 5 2 11 21 18 13 7 10 10 10 9 11
16 14 11 8 13 6 3 0 3 5 19 5 0 3 5 15 4 22 19 8 4 10 6 6 9 4 1 1 3 3 3 5 4 2 10 4 16 19 13 6 8 8 8 8 11
17 14 13 6 11 7 5 8 2 5 7 5 2 2 2 7 7 15 18 7 8 5 7 5 4 1 1 2 3 3 2 5 11 2 7 10 22 9 3 4 5 6 9 10 6
16 16 13 5 6 14 17 9 7 3 5 3 2 3 4 6 3 9 11 3 7 6 7 6 1 1 1 1 5 2 3 3 6 9 1 9 7 4 2 4 5 8 9 9 11
14 17 12 2 3 5 5 6 4 2 5 10 6 4 2 2 4 4 9 2 7 3 3 5 2 2 1 2 3 4 2 3 9 5 3 7 4 5 4 8 7 10 9 12 11
12 16 9 12 4 4 3 2 2 0 4 4 6 4 4 6 6 6 8 5 4 2 1 1 4 4 3 1 3 5 3 3 2 2 2 3 2 7 3 7 9 8 10 12 12
11 13 11 5 8 5 2 1 1 6 3 5 3 6 4 6 6 6 6 9 0 3 4 2 1 2 2 3 5 5 1 2 2 2 2 3 3 6 4 7 4 5 7 9 9
10 6 15 10 3 3 2 1 5 6 2 6 4 6 1 6 6 9 6 9 5 6 8 4 1 0 2 4 2 5 4 4 6 4 4 4 1 12 7 7 6 7 9 8 8
9 5 9 12 5 2 1 4 8 0 2 2 2 3 4 6 3 7 3 4 4 3 3 4 7 1 3 3 4 4 3 4 5 4 6 2 7 6 5 3 7 8 10 10 12
7 3 5 13 6 2 4 6 3 1 2 6 4 2 3 1 1 4 4 3 4 1 3 3 6 2 3 3 2 1 2 0 5 2 2 4 8 12 5 7 6 11 8 11 10
3 2 5 14 5 1 5 3 1 1 0 0 1 1 3 6 5 5 2 4 2 2 1 3 5 2 3 2 5 3 3 2 3 5 7 5 7 6 6 7 4 7 8 9 7
2 3 7 13 3 5 4 3 3 1 1 1 0 1 2 2 1 1 3 2 2 3 4 4 2 2 3 6 7 2 2 4 3 2 3 5 8 8 10 6 7 8 8 9 11
3 3 7 7 4 2 2 0 1 3 1 2 3 3 3 2 2 2 4 5 6 6 3 2 4 5 7 0 2 3 5 4 4 4 2 1 11 4 9 7 5 12 10 11 11
2 2 6 4 3 2 1 0 1 1 2 1 1 0 1 1 3 2 3 3 6 5 5 5 1 6 4 1 3 2 2 3 4 2 8 4 8 1 2 7 8 11 12 9 10
3 3 4 6 2 5 2 1 2 1 1 2 2 2 2 2 3 4 3 2 6 3 6 6 2 7 10 10 4 3 5 5 5 3 4 13 30 34 24 15 18 16 10 10 10
5 1 3 3 4 3 2 1 2 2 1 1 1 5 6 1 2 5 5 2 3 6 3 4 6 6 13 20 11 15 13 10 13 11 9 31 12 25 24 24 25 21 15 13 11
3 3 3 1 0 2 0 3 4 2 5 3 4 3 7 6 8 7 5 5 6 2 5 1 3 2 7 10 8 13 12 20 21 20 21 29 35 31 31 19 15 15 15 15 15
3 3 4 1 2 3 4 5 6 5 3 2 5 4 5 11 6 4 4 1 4 9 7 5 1 3 7 2 9 7 9 14 6 9 7 10 20 2 8 9 14 16 18 16 15
Wind_Direction
45 41 38 36 36 36 18 14 17 19 14 2 356 343 339 22 36 51 39 350 340 336 351 349 16 32 52 58 40 67 64 78 87 163 273 292 350 228 278 255 324 263 200 253 158
43 41 38 41 35 25 8 9 17 19 14 11 21 15 342 67 41 47 2 352 350 347 2 24 7 26 50 27 21 54 79 164 149 181 243 295 228 309 322 287 250 227 206 163 172
39 45 40 39 31 19 12 18 19 15 15 16 9 19 34 52 72 343 351 354 0 2 4 22 47 60 63 18 1 22 106 172 154 184 343 266 287 232 243 271 233 224 221 192 190
25 38 39 34 29 29 31 35 19 8 12 20 17 7 23 48 72 339 349 1 14 29 61 36 33 55 66 52 346 91 67 171 139 28 37 298 313 300 223 242 242 276 249 194 196
48 56 47 37 36 34 33 16 4 355 355 14 26 23 42 46 20 343 354 6 18 34 39 36 47 78 92 100 69 71 139 119 278 47 62 322 269 248 258 270 294 273 202 198 215
51 53 40 29 28 17 359 355 1 6 5 4 14 44 68 65 352 354 357 17 29 40 38 39 76 85 96 65 59 80 148 219 54 5 50 334 288 352 241 330 303 253 238 234 232
45 33 18 15 22 15 16 11 11 16 16 14 19 75 63 109 16 7 12 26 30 36 45 38 54 83 120 95 324 96 147 147 25 342 352 289 56 223 236 350 303 274 255 245 235
39 32 25 17 16 14 7 7 6 17 26 15 19 62 91 5 11 13 14 29 34 41 60 46 58 94 59 150 30 39 52 351 49 351 357 47 268 242 174 352 289 277 258 253 254
27 13 17 12 355 327 320 353 6 262 355 13 27 63 40 348 5 1 359 352 343 7 43 57 64 73 30 43 29 22 297 329 317 56 339 60 274 255 264 297 289 279 266 260 266
25 16 5 4 351 334 307 317 355 31 5 24 32 48 35 319 324 350 358 359 1 334 22 39 50 68 29 31 329 303 328 297 253 334 354 279 261 276 285 273 278 287 279 263 262
15 11 6 359 1 356 350 72 21 356 37 79 23 108 323 329 340 0 355 339 6 57 30 20 59 50 44 37 137 213 227 260 266 313 333 271 283 287 293 271 275 282 281 268 257
19 19 8 19 23 36 56 73 73 134 80 34 75 64 4 347 2 349 6 51 36 41 340 31 63 104 116 167 275 173 206 279 289 240 326 315 301 291 263 238 228 265 275 266 260
16 17 17 24 29 45 75 88 91 102 81 12 43 31 333 17 68 323 16 44 48 47 18 92 130 360 195 184 348 189 198 303 263 318 343 311 290 317 287 264 268 252 253 264 251
14 16 20 36 68 52 59 80 72 88 78 334 345 11 1 58 52 338 14 64 36 64 39 73 354 9 250 52 40 326 125 314 302 8 296 358 289 298 293 282 257 263 248 253 250
13 16 25 45 81 61 110 59 27 55 56 328 324 327 13 63 310 6 25 24 74 55 40 288 7 10 26 37 142 252 314 264 113 90 4 10 71 267 351 282 260 247 244 248 247
19 23 27 38 56 73 72 18 38 43 288 341 315 343 13 29 11 308 21 41 50 112 46 80 73 58 271 276 212 311 179 124 84 121 11 243 84 277 214 211 254 259 247 254 259
17 25 35 43 51 26 16 61 39 94 356 320 329 11 46 335 360 23 32 13 47 19 14 339 41 207 14 323 206 7 30 335 352 2 242 161 316 248 251 228 227 258 266 260 269
8 26 30 34 20 9 73 60 70 168 288 26 308 307 19 5 36 6 58 50 63 56 76 42 319 80 12 119 193 23 128 136 287 296 293 178 232 251 215 265 246 260 262 281 277
6 34 35 4 5 21 79 50 192 179 1 343 314 343 339 49 118 34 60 170 225 172 117 38 283 121 41 115 108 125 50 306 97 88 346 257 280 277 264 265 250 254 263 261 265
356 65 24 355 360 55 71 144 130 68 86 340 4 68 316 324 7 42 5 210 197 177 143 206 309 97 148 103 57 120 128 52 25 323 305 284 285 246 282 269 253 253 250 266 271
12 49 353 354 29 48 101 199 184 151 125 44 312 298 219 282 167 253 254 230 185 132 83 124 89 285 70 199 181 97 22 44 115 111 215 300 264 219 237 242 247 261 258 272 279
26 32 348 358 48 47 89 58 115 171 144 164 104 132 186 151 295 281 257 216 152 141 106 211 144 277 238 200 154 118 177 163 142 212 114 155 267 227 232 261 226 268 270 273 271
63 281 351 7 90 34 272 97 230 139 235 183 206 236 172 227 350 234 252 77 141 150 167 185 313 311 306 6 10 196 218 114 109 93 204 166 259 32 227 273 254 262 277 270 278
69 18 344 50 31 114 134 191 198 147 185 144 117 99 135 240 210 288 268 148 173 184 149 152 152 206 247 265 124 249 188 212 150 174 183 229 275 284 289 296 302 301 280 276 272
26 193 178 324 5 65 70 150 167 232 274 167 221 225 168 218 239 232 224 205 153 205 113 135 226 210 261 267 252 264 245 185 205 208 217 270 229 271 288 301 301 306 298 294 294
96 108 356 143 148 127 78 231 208 221 152 218 208 169 183 197 206 232 191 195 213 130 152 140 273 25 274 254 238 254 244 223 228 242 253 258 279 270 271 285 286 288 295 301 307
123 123 114 287 71 95 220 187 214 160 200 174 186 138 205 240 238 256 229 91 174 155 170 161 185 14 268 240 277 273 220 191 196 216 190 211 243 20 293 287 297 300 296 296 297